Regional Weather Roundup
Issued by NWS

Home | Current Version | Previous Version | Text Only | Print | Product List | Glossary On
Versions: 1 2 3 4 5 6 7 8 9 10 11 12 13 14 15 16 17 18 19 20 21 22 23 24 25 26 27 28 29 30 31 32 33 34 35 36 37 38 39 40 41 42 43 44 45 46 47 48 49 50
000
ASUS44 KFWD 261103
RWRTX
NORTH TEXAS HOURLY WEATHER ROUNDUP
NATIONAL WEATHER SERVICE FORT WORTH TX
600 AM CDT MON SEP 26 2016

NOTE: "FAIR" INDICATES FEW OR NO CLOUDS BELOW 12,000 FEET WITH NO
SIGNIFICANT WEATHER AND/OR OBSTRUCTIONS TO VISIBILITY.

TXZ118-119-261200-
DALLAS/FORT WORTH METROPLEX

CITY           SKY/WX    TMP DP  RH WIND       PRES   REMARKS
DFW AIRPORT    CLOUDY    68  60  75 N15       30.11S
DALLAS LOVE    RAIN      66  63  90 N10       30.11S FOG
FTW MEACHAM    CLOUDY    65  58  78 N14       30.13S
DAL-EXECUTIVE  HVY RAIN  65  65 100 N8        30.11R FOG
FTW-ALLIANCE   CLOUDY    64  57  78 N13       30.13F
FTW-NAS-JRB    CLOUDY    66  58  75 N15       30.14S
FTW-SPINKS     HVY RAIN  64  61  92 N8        30.14R
ARLINGTON      CLOUDY    67  61  81 N16G23    30.12R
GRAND PRAIRIE  CLOUDY    67  61  82 N16       30.13R
ADDISON        CLOUDY    64  64 100 N10       30.12F
MESQUITE       CLOUDY    67  66  97 N10       30.10R
LANCASTER      RAIN      67  64  87 N12       30.11S
$$

TXZ091>094-102>105-117-120-121-131>134-261200-
NORTH CENTRAL TEXAS

CITY           SKY/WX    TMP DP  RH WIND       PRES   REMARKS
SHRMAN/DENISON NOT AVBL
GAINESVILLE      N/A     61  56  85 N7        30.18R
BOWIE          MOCLDY    64  56  76 N6        30.17S
BRIDGEPORT     CLOUDY    64  59  84 NE5       30.18S
DECATUR        CLOUDY    60  58  91 NE10      30.16R
DENTON         CLOUDY    64  55  72 N18       30.14S
MCKINNEY       HVY RAIN  62  62 100 N15       30.12S FOG
GREENVILLE     CLOUDY    66  63  88 N13       30.09R
ROCKWALL       LGT RAIN  65  65  98 N14G21    30.09S
TERRELL        LGT RAIN  68  64  87 N10       30.09S
WAXAHACHIE     CLOUDY    66  66 100 N15       30.11S
CLEBURNE       CLOUDY    64  64 100 N14G24    30.13S
GRANBURY       CLOUDY    65  60  84 N13G18    30.15S
$$

TXZ083>090-098>101-113>116-127>130-139>142-154-155-261200-
WESTERN NORTH TEXAS

CITY           SKY/WX    TMP DP  RH WIND       PRES   REMARKS
WICHITA FALLS  CLOUDY    63  55  75 N13       30.19F
WF-KICKAPOO    CLOUDY    65  55  69 N12G17    30.21S
VERNON         CLOUDY    63  52  68 N8        30.24S
ABILENE        CLOUDY    60  56  86 N9        30.21S
ABILENE-DYESS  PTCLDY    61  53  73 N12       30.21R
CISCO          CLOUDY    59  59 100 N12       30.19S
MINERAL WELLS  CLOUDY    65  54  67 NE12G21   30.14S
STEPHENVILLE   CLOUDY    63  59  88 N14G22    30.17R
COMANCHE       DRIZZLE   62  62 100 N12       30.16R
BROWNWOOD      CLOUDY    63  59  88 N14G21    30.15R
COLEMAN        DRIZZLE   62  58  87 N17       30.17R
$$

TXZ143>147-156>162-174-175-261200-
CENTRAL TEXAS

CITY           SKY/WX    TMP DP  RH WIND       PRES   REMARKS
WACO           LGT RAIN  70  69  97 N10       30.08R
WACO-MCGREGOR  CLOUDY    70  68  93 N13       30.08R
HILLSBORO      CLOUDY    67  65  93 N15       30.09S
CORSICANA      CLOUDY    69  66  90 N13       30.08R
MEXIA          CLOUDY    69  68  98 NW10G20   30.06R
HEARNE         CLOUDY    72  71  98 CALM      30.05R
CAMERON        CLOUDY    73  72  96 N5        30.05R
TEMPLE         CLOUDY    72  71  97 N10       30.07R
KILLEEN        RAIN      70  68  94 N12       30.07R FOG
KILLEEN-SKYLRK LGT RAIN  72  71  97 NE13      30.07R
FORT HOOD      RAIN      69  68  97 NE13      30.05R FOG
HAMILTON       RAIN      65  65 100 N13       30.13R
LAMPASAS       RAIN      68  67  97 N13G18    30.09R
$$

TXZ095>097-106>112-122>126-135>138-148>153-164>167-261200-
EAST TEXAS

CITY           SKY/WX    TMP DP  RH WIND       PRES   REMARKS
PARIS          CLOUDY    66  63  88 N16G23    30.09R
SULPHUR SPRNGS CLOUDY    69  65  88 N12       30.10R
MOUNT PLEASANT MOCLDY    73  67  82 N12       30.07S
GILMER         CLOUDY    72  69  92 CALM      30.05R
MINEOLA        CLOUDY    70  68  94 N5        30.07R
TYLER          CLOUDY    72  70  93 N6        30.05R
LONGVIEW       CLOUDY    71  71 100 NW5       30.03R
MARSHALL       MOCLDY    70  68  92 CALM      30.05S
ATHENS         CLOUDY    70  70 100 N9        30.04R
PALESTINE      CLOUDY    70  70 100 N3        30.05R
JACKSONVILLE   CLOUDY    71  71 100 N3        30.06S
HENDERSON      HVY RAIN  71  71 100 N7        30.05S
CENTER         MOSUNNY   73  71  95 CALM      30.04S
NACOGDOCHES    CLOUDY    72  70  94 CALM      30.02S
LUFKIN         FOG       70  70 100 W5        30.03R VSB 3/4
$$

SUPPLEMENTAL OBSERVATIONS (CENTRAL)

CITY           SKY/WX    TMP DP  RH WIND       PRES   REMARKS
$$

SUPPLEMENTAL OBSERVATIONS (WEST)

CITY           SKY/WX    TMP DP  RH WIND       PRES   REMARKS
$$

SUPPLEMENTAL OBSERVATIONS (EAST)

CITY           SKY/WX    TMP DP  RH WIND       PRES   REMARKS
$$

SUPPLEMENTAL OBSERVATIONS ARE A COLLECTION OF AUTOMATED INSTRUMENTS
THAT ARE MAINTAINED BY A VARIETY OF FEDERAL AND STATE AGENCIES.
CERTAIN ELEMENTS...SUCH AS HUMIDITY VALUES AND SUSTAINED WIND
SPEEDS...MAY BE APPROXIMATED.





USA.gov is the U.S. government's official web portal to all federal, state and local government web resources and services.